GP-B

导读

GP-B(引力探测器B)是美国航空航天局于2004年4月20日发射的科学探测卫星,项目研发超四十年,总耗资达七亿五千万美元。它的核心任务是测量地球周围时空曲率,检验爱因斯坦广义相对论的两项关键预言。任务飞行持续至2005年,后续数据分析证实测地线效应精度误差小于1%,是相对论实验验证领域的标志性项目。

基本信息
目录编号:
28230
目录名称:
GP-B
国际标识:
2004-014A
轨道中心:
EARTH
卫星名称:
GP-B
卫星全名:
--
卫星状态:
在轨 (已飞行8120 天)
发射日期:
2004-04-20 UTC
国别 :
美国 (US)
星等 :
--
轨道信息
数据来源 国际轨道数据 AOE轨道数据
星历时间 2026-07-13T22:39:00+0800
13小时前
查看轨道信息
2026-07-10T00:00:00+0800
4天前
查看轨道信息
半长轴 6997.03km 6997.037km
偏心率 0.0002662 0.000242
轨道倾角 89.848° 89.850°
近地点辐角 104.391° 103.220°
升交点赤经 49.695° 49.769°
平近点角 255.761° 91.861°
近地点 617.03km 617.206km
远地点 620.756km 620.594km
周期 97.080分钟 97.080分钟
每日圈数 14.83311 14.833087
详细信息
使用方式:
暂无
2D轨道图
3D轨道图
轨道高度分析图
轨道倾角分析图
轨道综合分析图
查看轨道综合分析图